Kezdőlap
METAR-TAF:

METAR-TAF

Repülőterek :

Sparta, Wisconsin, Amerikai Egyesült Államok

földrajzi szélesség: 43-57-30N, földrajzi hosszúság: 090-44-16W, magasság: 255 m

Jelenlegi meteorológiai megfigyelések

A jelentés 39 perccel ezelõtt készült, 00:58 UTC
Dél-délnyugati szél 11 kt
Hőmérséklet -12°C
Páratartalom 61%
Légköri nyomás 1018 hPa
Látótávolság: 16.1 km
Derült ég

METAR: KCMY 270058Z AUTO 21011KT 10SM CLR M12/M18 A3006 RMK AO2 LTG DSNT E SLP217 T11191181 $

Idő: 19:37 (01:37 UTC)


TAF: hiányzik

Meteorológiai megfigyelések és előrejelzések több, mint 4000 repülőtéren (METAR és TAF jelentéseket).

A térképen piros és sárga pontok jelzik az elérhető meteorológiai állomásokat.

Mozgassa az egeret a pont fölött, hogy megjelenjen az állomás neve.

Azután kattintson az időjárási megfigyelések és előrejelzések megtekintéséhez.

A térkép megváltoztatása: kattintson a fekete keresztel jelölt zöld gombra ráközelítéshez, a vonallal jelölt zöld gombra távolításhoz, vagy a zöld nyilakra a szomszédos térképek eléréséhez.


METAR-TAF: